Rush City, MN

12:18 AM CDT on August 21, 2017 (GMT -0500)
Rush City Regional

Weather History for KROS - November, 2013

Change the Weather History Date:

Friday, November 8, 2013

  Actual Average (KCBG) Record (KCBG)
Temperature  
Mean Temperature 30 °F -  
Max Temperature 41 °F 42 °F 71 °F (1999)
Min Temperature 20 °F 26 °F 1 °F (1991)
Degree Days  
Heating Degree Days 34    
Moisture  
Dew Point 26 °F    
Average Humidity 82    
Maximum Humidity 100    
Minimum Humidity 56    
Precipitation  
Precipitation 0.00 in - - ()
Sea Level Pressure  
Sea Level Pressure 29.92 in    
Wind  
Wind Speed 4 mph (SE)    
Max Wind Speed 14 mph    
Max Gust Speed 23 mph    
Visibility 10 miles    
Events      
Averages and records for this station are not official NWS values.
T = Trace of Precipitation, MM = Missing Value Source: NWS Daily Summary

Daily Weather History Graph

Daily Weather History Graph

Search for Another Location

Airport or City:

Trip Planner

Search our weather history database for the weather conditions in past years. The results will help you decide how hot, cold, wet, or windy it might be!

Date:

Astronomy

Nov. 08, 2013 Rise Set
Actual Time 7:01 AM CST 4:48 PM CST
Civil Twilight 6:30 AM CST 5:20 PM CST
Nautical Twilight 5:54 AM CST 5:55 PM CST
Astronomical Twilight 5:19 AM CST 6:30 PM CST
Moon 11:58 AM CST (11/8) 10:11 PM CST (11/8)
Length of Visible Light 10h 49m
Length of Day
9h 46m
Waxing Crescent, 33% of the Moon is Illuminated
Nov 8
Waxing Crescent
Nov 9
First Quarter
Nov 17
Full
Nov 25
Last Quarter
Dec 2
New

Hourly Weather History & Observations

Time (CST) Temp. Windchill Dew Point Humidity Pressure Visibility Wind Dir Wind Speed Gust Speed Precip Events Conditions
12:15 AM 23.7 °F - 22.1 °F 94% 30.17 in 10.0 mi Calm Calm - N/A   Clear
12:35 AM 23.7 °F - 22.5 °F 95% 30.18 in 10.0 mi Calm Calm - N/A   Clear
12:55 AM 23.5 °F - 22.3 °F 95% 30.17 in 7.0 mi Calm Calm - N/A   Clear
1:15 AM 22.8 °F - 21.2 °F 93% 30.17 in 7.0 mi Calm Calm - N/A   Clear
1:35 AM 22.3 °F - 21.0 °F 95% 30.17 in 7.0 mi Calm Calm - N/A   Clear
1:55 AM 22.1 °F - 20.7 °F 94% 30.18 in 7.0 mi Calm Calm - N/A   Clear
2:15 AM 21.9 °F - 20.7 °F 95% 30.17 in 7.0 mi Calm Calm - N/A   Clear
2:35 AM 21.2 °F - 20.1 °F 96% 30.18 in 10.0 mi Calm Calm - N/A   Clear
2:55 AM 21.0 °F - 19.6 °F 94% 30.17 in 7.0 mi Calm Calm - N/A   Clear
3:15 AM 20.8 °F - 19.6 °F 95% 30.18 in 10.0 mi Calm Calm - N/A   Clear
3:35 AM 20.3 °F - 18.9 °F 94% 30.17 in 10.0 mi Calm Calm - N/A   Clear
3:55 AM 20.1 °F - 18.7 °F 94% 30.17 in 10.0 mi Calm Calm - N/A   Clear
4:15 AM 20.5 °F - 19.2 °F 95% 30.16 in 10.0 mi Calm Calm - N/A   Clear
4:24 AM 20.3 °F - 18.9 °F 94% 30.16 in 10.0 mi Calm Calm - N/A   Clear
4:35 AM 20.3 °F - 19.0 °F 95% 30.16 in 10.0 mi Calm Calm - N/A   Clear
5:05 AM 21.2 °F - 21.2 °F 100% 30.15 in 10.0 mi Calm Calm - N/A   Clear
5:28 AM 21.2 °F - 19.9 °F 95% 30.15 in 10.0 mi Calm Calm - N/A   Clear
5:35 AM 20.7 °F - 19.2 °F 94% 30.15 in 10.0 mi Calm Calm - N/A   Clear
5:55 AM 21.7 °F - 20.3 °F 94% 30.15 in 10.0 mi Calm Calm - N/A   Clear
6:14 AM 21.7 °F - 20.3 °F 94% 30.14 in 10.0 mi Calm Calm - N/A   Scattered Clouds
6:35 AM 21.2 °F - 19.9 °F 95% 30.13 in 10.0 mi Calm Calm - N/A   Scattered Clouds
6:55 AM 21.9 °F - 20.5 °F 94% 30.13 in 10.0 mi Calm Calm - N/A   Clear
7:14 AM 21.9 °F 17.2 °F 20.5 °F 94% 30.11 in 10.0 mi ESE 3.5 mph - N/A   Clear
7:35 AM 22.3 °F 17.6 °F 21.2 °F 96% 30.11 in 10.0 mi SE 3.5 mph - N/A   Clear
7:55 AM 23.7 °F 19.3 °F 22.6 °F 96% 30.11 in 10.0 mi SE 3.5 mph - N/A   Clear
8:15 AM 24.8 °F 20.5 °F 23.7 °F 96% 30.11 in 10.0 mi SSE 3.5 mph - N/A   Clear
8:35 AM 25.7 °F 19.0 °F 24.8 °F 96% 30.11 in 10.0 mi SE 5.8 mph - N/A   Clear
8:54 AM 26.4 °F 19.8 °F 25.3 °F 96% 30.10 in 10.0 mi SE 5.8 mph - N/A   Clear
9:15 AM 27.5 °F 21.1 °F 26.6 °F 96% 30.09 in 10.0 mi SSE 5.8 mph - N/A   Clear
9:34 AM 28.4 °F 23.3 °F 27.3 °F 96% 30.07 in 10.0 mi SE 4.6 mph - N/A   Clear
9:55 AM 29.8 °F 23.9 °F 28.6 °F 95% 30.07 in 10.0 mi SE 5.8 mph - N/A   Scattered Clouds
10:15 AM 30.9 °F 25.2 °F 29.5 °F 94% 30.05 in 10.0 mi SE 5.8 mph - N/A   Scattered Clouds
10:34 AM 31.8 °F 24.6 °F 30.2 °F 94% 30.04 in 10.0 mi SE 8.1 mph - N/A   Overcast
10:55 AM 32.4 °F 24.6 °F 30.4 °F 92% 30.01 in 10.0 mi ESE 9.2 mph - N/A   Overcast
11:15 AM 33.8 °F 27.7 °F 30.4 °F 87% 30.00 in 10.0 mi ESE 6.9 mph - N/A   Overcast
11:34 AM 34.3 °F 28.4 °F 29.7 °F 83% 29.99 in 10.0 mi SE 6.9 mph - N/A   Overcast
11:55 AM 35.6 °F 29.2 °F 29.3 °F 78% 29.99 in 10.0 mi SE 8.1 mph - N/A   Overcast
11:59 AM 35.6 °F 30.7 °F 29.3 °F 78% 29.98 in 10.0 mi SE 5.8 mph - N/A   Overcast
12:25 PM 35.6 °F 29.2 °F 30.2 °F 81% 29.94 in 10.0 mi ESE 8.1 mph - N/A   Overcast
12:45 PM 35.6 °F 29.9 °F 30.2 °F 81% 29.92 in 10.0 mi ESE 6.9 mph - N/A   Overcast
1:05 PM 35.6 °F 29.2 °F 30.2 °F 81% 29.90 in 10.0 mi ESE 8.1 mph - N/A   Overcast
1:25 PM 37.4 °F 32.1 °F 30.2 °F 75% 29.90 in 10.0 mi SE 6.9 mph - N/A   Overcast
1:45 PM 37.4 °F 31.4 °F 30.2 °F 75% 29.87 in 10.0 mi ESE 8.1 mph - N/A   Overcast
2:05 PM 39.2 °F 32.5 °F 26.6 °F 61% 29.86 in 10.0 mi SE 10.4 mph 17.3 mph N/A   Overcast
2:25 PM 39.2 °F 33.6 °F 26.6 °F 61% 29.83 in 10.0 mi ESE 8.1 mph - N/A   Mostly Cloudy
2:45 PM 39.2 °F 31.6 °F 24.8 °F 56% 29.80 in 10.0 mi ESE 12.7 mph 19.6 mph N/A   Overcast
3:05 PM 39.2 °F 31.6 °F 24.8 °F 56% 29.78 in 10.0 mi ESE 12.7 mph 20.7 mph N/A   Overcast
3:25 PM 39.2 °F 32.5 °F 24.8 °F 56% 29.77 in 10.0 mi ESE 10.4 mph 18.4 mph N/A   Overcast
3:45 PM 39.2 °F 31.6 °F 24.8 °F 56% 29.76 in 10.0 mi SE 12.7 mph 19.6 mph N/A   Overcast
4:05 PM 39.2 °F 32.5 °F 24.8 °F 56% 29.77 in 10.0 mi SE 10.4 mph 20.7 mph N/A   Overcast
4:25 PM 39.2 °F 34.2 °F 26.6 °F 61% 29.77 in 10.0 mi SE 6.9 mph - N/A   Overcast
4:45 PM 39.2 °F 32.0 °F 26.6 °F 61% 29.76 in 10.0 mi SE 11.5 mph 16.1 mph N/A   Overcast
5:05 PM 39.2 °F 32.0 °F 26.6 °F 61% 29.75 in 10.0 mi SSE 11.5 mph 19.6 mph N/A   Mostly Cloudy
5:25 PM 39.2 °F 31.2 °F 26.6 °F 61% 29.73 in 10.0 mi SE 13.8 mph 19.6 mph N/A   Mostly Cloudy
5:45 PM 39.2 °F 31.2 °F 26.6 °F 61% 29.71 in 10.0 mi SE 13.8 mph 21.9 mph N/A   Mostly Cloudy
6:05 PM 39.2 °F 31.2 °F 26.6 °F 61% 29.70 in 10.0 mi SE 13.8 mph 21.9 mph N/A   Overcast
6:25 PM 39.2 °F 32.0 °F 26.6 °F 61% 29.69 in 10.0 mi SE 11.5 mph 20.7 mph N/A   Scattered Clouds
6:45 PM 39.2 °F 32.0 °F 28.4 °F 65% 29.67 in 10.0 mi SE 11.5 mph 23.0 mph N/A   Clear
7:05 PM 39.2 °F 31.2 °F 28.4 °F 65% 29.66 in 10.0 mi SSE 13.8 mph 19.6 mph N/A   Clear
7:25 PM 39.2 °F 32.0 °F 28.4 °F 65% 29.65 in 10.0 mi SSE 11.5 mph 19.6 mph N/A   Mostly Cloudy
7:45 PM 41.0 °F 34.3 °F 28.4 °F 61% 29.64 in 10.0 mi SSE 11.5 mph 21.9 mph N/A   Overcast
8:05 PM 41.0 °F 34.3 °F 28.4 °F 61% 29.63 in 10.0 mi SE 11.5 mph 18.4 mph N/A   Overcast
8:25 PM 41.0 °F 35.2 °F 28.4 °F 61% 29.62 in 10.0 mi SSE 9.2 mph 19.6 mph N/A   Overcast
8:45 PM 39.2 °F 32.5 °F 30.2 °F 70% 29.62 in 10.0 mi SE 10.4 mph 16.1 mph N/A   Overcast
9:05 PM 39.2 °F 34.2 °F 30.2 °F 70% 29.61 in 10.0 mi SE 6.9 mph - N/A   Overcast
9:25 PM 37.4 °F - 32.0 °F 81% 29.62 in 10.0 mi Calm Calm - N/A   Overcast
9:45 PM 37.4 °F 30.8 °F 32.0 °F 81% 29.59 in 10.0 mi SE 9.2 mph - N/A   Overcast
10:05 PM 37.4 °F 31.4 °F 33.8 °F 87% 29.59 in 10.0 mi SSE 8.1 mph - N/A   Overcast
10:25 PM 37.4 °F 32.1 °F 33.8 °F 87% 29.58 in 10.0 mi SE 6.9 mph - N/A   Overcast
10:45 PM 37.4 °F 33.8 °F 33.8 °F 87% 29.58 in 10.0 mi South 4.6 mph - N/A   Overcast
11:05 PM 37.4 °F 34.9 °F 33.8 °F 87% 29.58 in 10.0 mi South 3.5 mph - N/A   Overcast
11:25 PM 37.4 °F - 35.6 °F 93% 29.58 in 10.0 mi Calm Calm - N/A   Overcast
11:45 PM 37.4 °F - 35.6 °F 93% 29.58 in 10.0 mi Calm Calm - N/A   Overcast